Theta_e
298 299 299 299 299 300 299 299 299 300 299 299 298 298 296 294 294 294 295 294 293 293 292 292 291 291 291 291 291 290 288 287 283 287 290 290 289 290 291 293 293 292 292
297 298 298 298 299 299 298 299 300 298 298 298 298 297 296 295 295 294 293 293 292 291 291 290 290 290 290 290 289 288 288 288 285 283 286 287 287 288 291 291 291 290 290
295 296 297 297 297 297 298 298 299 298 297 297 297 296 295 295 294 294 293 292 292 291 290 289 290 290 289 289 288 287 287 286 285 284 283 287 286 288 290 291 289 289 288
293 294 295 295 296 296 297 297 297 297 296 296 296 296 295 295 293 293 292 292 291 291 290 290 290 290 288 288 287 286 286 284 283 282 283 284 285 287 289 286 284 286 285
290 292 293 295 295 295 295 295 296 296 296 296 295 295 294 293 292 292 291 292 291 289 289 289 290 288 286 286 285 286 285 283 283 281 282 283 283 284 284 284 281 283 284
287 288 290 292 292 293 294 294 294 294 294 294 294 293 293 291 291 291 291 291 290 288 288 288 288 284 283 283 284 284 284 283 282 282 283 282 283 283 283 280 280 278 278
284 285 285 287 289 291 292 292 292 292 293 292 291 290 289 291 290 291 289 290 289 287 287 287 286 285 283 284 283 283 283 285 285 284 283 282 282 283 280 278 278 277 277
281 281 282 283 284 286 288 289 291 292 289 288 288 288 288 288 290 291 289 288 287 286 286 286 286 285 284 282 281 281 282 284 285 285 283 283 282 282 280 278 277 277 280
276 278 279 282 283 284 285 287 287 287 287 287 288 287 287 288 290 290 289 287 286 286 286 285 285 284 283 282 281 281 283 284 285 284 282 281 280 278 279 277 276 275 276
272 274 277 279 282 283 284 285 287 287 287 288 287 287 287 288 289 290 289 287 286 285 285 284 282 283 282 283 282 282 282 283 282 282 281 279 277 277 276 275 275 273 274
271 272 275 278 280 283 284 285 286 286 287 286 286 286 287 287 287 290 290 287 287 286 285 284 283 283 283 283 283 284 283 283 283 280 279 279 278 278 277 276 275 273 272
269 270 272 275 278 282 283 285 285 286 285 285 285 286 286 286 286 289 290 289 288 286 285 286 285 284 285 284 284 285 283 282 280 279 279 279 277 277 277 276 274 274 275
267 268 270 273 276 278 281 283 284 285 285 285 285 285 285 285 286 288 290 289 288 286 286 286 284 284 284 284 284 282 278 279 279 278 279 278 277 276 275 275 275 274 276
266 267 269 271 273 276 279 283 283 284 284 284 285 284 285 284 284 285 287 288 286 286 284 284 283 283 283 283 278 280 279 278 278 279 278 277 276 276 276 275 274 275 275
265 266 268 269 271 273 277 278 281 284 285 284 285 285 285 284 284 285 286 286 287 286 284 283 282 280 279 278 277 277 277 276 276 277 276 276 276 276 275 276 275 276 274
263 265 266 267 269 272 274 275 279 282 284 286 287 286 286 287 288 286 287 287 288 287 283 281 279 278 277 278 277 277 277 276 278 276 276 276 275 276 275 275 276 275 274
261 262 264 265 267 269 270 271 272 276 281 285 286 287 287 288 287 287 286 286 287 286 284 282 280 279 279 279 279 278 277 277 276 276 276 275 276 275 275 276 275 275 274
259 260 261 264 265 267 268 268 270 272 274 279 284 285 287 288 287 288 287 286 284 285 283 283 282 282 281 280 280 279 278 276 275 276 276 276 275 275 275 275 275 274 273
258 260 261 262 263 265 265 266 268 270 274 277 282 284 284 287 287 287 288 285 283 283 282 282 283 282 281 281 280 279 278 276 276 276 276 275 275 276 275 275 274 272 272
257 258 258 260 262 263 264 264 266 269 271 275 278 282 284 285 284 284 285 285 284 284 284 283 282 282 282 281 279 278 277 276 275 275 275 275 275 276 274 274 273 272 272
256 257 258 259 260 262 262 263 265 267 268 271 274 277 280 283 284 285 285 285 285 284 284 284 284 282 281 280 279 278 277 276 276 276 275 275 275 275 275 274 273 272 272
256 257 257 258 259 260 261 262 264 266 266 268 271 273 277 278 284 284 285 285 285 285 285 285 285 282 281 279 278 278 276 276 275 275 275 274 273 274 274 272 272 271 270
255 256 256 257 257 258 259 261 262 263 265 267 269 272 274 277 281 284 285 285 285 285 286 285 285 282 281 280 279 279 277 276 276 276 274 273 273 273 273 271 271 270 270
254 254 255 255 256 257 258 259 261 262 264 266 269 271 273 275 278 281 284 285 285 285 286 285 284 282 280 279 279 279 279 278 277 275 275 273 273 272 272 270 270 270 269
253 253 253 254 254 255 256 258 259 261 263 265 266 267 269 271 273 275 282 284 285 285 285 285 284 282 280 278 277 278 278 276 275 275 275 274 272 271 271 270 269 269 268
253 253 253 254 254 255 255 256 258 260 261 263 264 266 268 270 272 274 275 282 283 284 285 284 283 281 279 277 277 277 274 273 273 274 274 274 271 271 270 269 268 268 267
Wind_Speed
14 14 15 15 16 15 14 15 15 15 15 15 16 15 14 13 13 12 11 11 11 10 8 8 8 7 5 5 5 6 7 8 11 11 9 11 14 14 14 15 13 15 13
11 13 13 13 14 14 14 15 14 14 14 14 14 14 14 14 14 14 13 11 13 12 11 9 9 6 8 7 6 8 8 8 9 16 12 11 14 15 16 15 14 12 14
6 10 12 12 14 15 14 13 13 14 14 14 15 15 15 14 14 14 13 13 13 12 11 10 9 9 7 6 7 6 7 7 9 9 12 9 10 11 13 13 14 14 12
3 6 9 11 12 12 12 12 12 13 14 14 14 14 14 14 13 13 12 12 12 11 10 10 9 9 8 7 6 7 7 7 9 9 9 9 9 10 10 12 13 11 14
8 3 5 6 8 9 11 12 12 13 12 12 13 13 13 13 11 14 13 14 13 12 11 10 9 8 7 7 5 6 6 7 8 9 8 8 9 9 11 10 13 13 13
13 12 9 4 5 7 8 9 11 11 12 12 14 13 14 10 17 21 16 12 12 11 10 9 9 7 9 12 13 13 10 10 10 8 8 9 9 9 9 11 11 13 9
13 13 13 12 8 3 6 9 9 11 11 12 11 12 13 13 20 22 20 10 11 10 9 8 7 6 7 7 9 11 11 14 15 10 10 9 10 9 9 11 12 12 11
14 13 13 13 11 9 3 5 5 6 8 8 10 11 11 11 20 23 22 10 9 10 10 10 9 8 8 7 6 6 8 8 7 6 7 9 9 8 9 10 12 13 12
15 15 14 13 12 10 8 5 3 5 7 9 7 11 13 10 20 23 20 11 10 10 9 9 9 8 10 13 7 7 8 7 4 8 7 9 8 9 9 7 7 9 9
16 15 14 12 12 10 9 7 4 3 7 7 9 10 12 11 19 24 21 9 11 8 7 8 13 10 13 14 9 7 7 6 5 5 4 4 4 4 6 4 6 7 7
14 14 14 13 13 12 10 6 5 5 5 7 8 8 12 13 13 25 27 12 10 9 8 8 7 19 16 16 15 8 6 3 5 4 4 3 3 3 3 3 4 5 6
13 13 13 13 11 10 12 9 5 4 5 6 7 7 7 9 15 24 27 22 18 11 11 8 8 18 18 17 12 10 7 7 4 4 3 3 3 3 4 2 3 3 4
14 14 12 12 11 11 11 10 6 3 4 5 5 6 6 6 8 20 26 26 20 10 6 10 14 17 16 12 13 9 5 4 4 4 3 2 2 3 5 2 2 2 2
13 13 12 13 14 11 9 7 6 5 4 5 5 7 6 6 8 8 11 13 14 11 9 8 11 11 11 7 4 7 5 5 5 4 3 1 1 1 2 3 2 2 4
12 11 11 9 11 12 9 9 8 7 7 6 6 6 7 7 8 13 13 11 12 12 10 8 7 7 7 7 6 6 6 5 6 5 4 3 2 1 1 3 4 4 4
12 10 9 10 10 9 10 11 11 16 17 15 16 13 6 12 10 19 21 20 19 22 8 8 9 8 9 8 8 8 7 8 7 6 5 4 4 3 3 4 4 4 3
12 12 9 10 9 9 9 9 11 10 18 17 13 12 14 13 13 16 22 23 22 24 9 10 9 10 10 9 8 8 8 8 6 6 6 6 5 5 5 4 4 4 3
11 14 10 9 9 9 9 9 8 9 10 10 10 8 9 12 13 15 19 20 12 17 9 9 10 10 9 9 8 8 7 8 8 7 7 7 6 6 6 5 5 6 5
12 10 10 10 10 10 10 10 9 9 9 9 10 9 5 11 14 15 17 10 12 12 10 9 8 10 9 8 8 8 8 8 8 8 7 7 7 7 7 6 5 7 8
12 15 13 10 10 10 9 9 9 9 9 9 8 8 6 4 6 7 9 10 10 10 10 10 9 9 9 9 8 8 8 8 8 8 8 8 7 6 7 7 7 8 8
10 11 12 10 10 9 9 10 9 10 9 9 9 9 20 8 6 8 9 10 10 10 10 10 9 10 9 8 9 9 10 9 9 9 8 8 8 8 7 7 7 7 8
10 10 10 10 10 11 10 10 10 11 10 9 9 11 19 12 8 8 9 9 10 10 9 9 9 9 10 11 10 10 11 11 11 10 9 9 9 9 8 8 8 8 8
11 12 12 10 11 12 11 10 10 10 10 10 10 10 9 9 10 8 9 9 8 9 9 10 10 9 8 9 10 12 13 13 12 11 12 11 10 10 9 9 9 9 9
11 12 12 11 10 11 11 11 11 13 12 11 11 9 9 8 10 10 10 7 8 9 9 11 11 12 10 10 9 10 9 9 10 12 16 12 12 13 10 10 10 11 9
11 11 11 11 11 10 11 12 12 12 12 11 10 9 10 10 11 11 10 9 8 8 10 11 10 13 16 17 15 16 15 19 15 16 12 13 14 16 12 10 11 11 11
11 12 11 10 11 11 11 12 12 12 12 10 10 10 10 10 10 10 10 11 10 10 11 9 11 15 16 15 17 18 19 20 18 20 14 13 13 12 12 13 17 10 13
Wind_Direction
195 192 190 190 189 184 184 183 182 176 177 178 179 182 181 182 185 189 193 188 197 201 205 208 213 209 221 223 232 243 244 243 259 282 287 298 302 303 303 303 300 309 307
199 195 196 193 190 190 190 186 179 179 179 180 180 183 185 188 188 193 193 195 200 204 205 207 215 210 223 233 240 246 254 257 268 278 293 300 306 305 301 303 308 309 311
206 196 195 197 196 201 197 190 183 181 181 182 182 185 185 189 190 196 197 198 203 206 204 208 214 213 223 235 239 256 260 265 271 275 289 297 301 297 305 308 309 313 310
285 216 204 203 204 204 201 193 189 187 182 185 189 186 187 187 189 189 193 198 204 207 206 212 213 214 222 233 244 255 268 275 274 279 287 297 301 308 311 312 315 318 317
6 323 250 214 207 203 197 196 190 190 193 188 184 188 187 189 187 187 190 196 200 201 205 209 214 218 220 233 237 246 265 275 280 288 292 297 305 314 316 322 312 315 314
22 19 4 312 214 207 209 204 200 197 193 187 192 189 191 196 192 191 185 192 194 196 195 198 206 196 216 228 238 249 261 277 279 280 294 299 302 314 319 318 315 324 327
22 17 10 2 354 298 225 201 200 201 194 200 194 191 198 199 190 189 188 189 188 192 188 184 192 207 211 221 229 250 258 265 267 281 293 297 302 318 321 314 315 311 298
19 15 6 357 349 340 295 231 204 197 194 191 200 200 200 206 191 190 186 184 189 191 188 187 189 191 205 205 218 241 256 251 262 273 276 291 300 317 309 311 302 299 290
11 2 355 349 341 335 323 276 216 193 198 207 199 198 206 206 197 190 178 185 195 196 189 185 188 199 206 207 215 243 265 274 257 267 280 295 304 310 318 316 330 322 323
357 346 338 334 336 333 320 297 250 215 218 205 205 202 206 208 197 192 184 182 193 194 186 189 201 203 201 205 214 234 262 277 279 246 272 269 276 292 318 331 330 330 328
345 341 339 335 330 332 324 310 276 235 225 212 214 202 200 205 200 197 191 187 194 189 191 192 200 207 206 208 212 223 243 271 273 278 279 270 269 292 310 343 353 332 330
348 345 338 334 333 328 328 320 305 257 234 229 223 222 214 209 201 202 199 197 192 189 196 192 186 195 201 206 212 231 238 258 258 251 253 265 292 310 318 328 348 332 329
341 340 335 333 337 330 329 328 319 291 258 248 234 237 225 209 214 209 201 198 196 193 182 181 174 185 192 201 214 211 189 217 218 220 229 244 271 314 300 312 255 301 337
335 334 332 336 335 333 321 323 329 310 271 253 241 238 235 209 213 204 203 199 196 187 160 155 166 173 182 176 174 203 203 213 216 207 191 186 254 281 337 37 19 321 19
330 326 330 328 325 317 319 320 319 301 281 270 257 245 245 233 218 203 199 195 189 183 152 148 159 168 182 191 196 196 194 193 205 187 176 179 188 151 110 92 67 69 64
321 323 323 320 317 311 317 315 314 311 308 285 258 254 248 250 229 207 207 205 191 168 165 175 180 187 193 191 195 193 192 200 201 182 175 174 173 155 134 112 104 80 51
305 306 306 305 303 305 307 309 316 318 310 293 280 256 254 250 234 208 207 202 197 172 196 192 188 191 197 193 188 190 191 194 174 180 179 178 166 149 153 143 116 95 73
286 287 286 287 288 291 295 302 302 301 308 305 288 273 258 248 241 229 211 199 199 195 207 194 196 194 198 193 186 184 181 168 180 177 184 175 174 162 155 159 130 116 95
287 283 283 284 282 284 292 290 294 290 290 292 295 277 244 248 238 241 215 202 194 201 201 208 200 200 191 192 181 175 174 176 177 175 181 174 172 167 157 153 129 119 111
274 266 260 269 273 276 282 286 286 285 287 289 291 292 287 206 225 220 223 211 202 199 197 208 197 207 196 180 173 170 169 173 176 181 175 170 165 164 158 155 148 139 122
277 278 277 280 273 273 274 275 279 275 271 275 280 291 304 265 236 227 221 216 210 204 198 207 208 189 196 179 173 174 174 175 179 177 171 165 163 158 157 154 144 135 132
267 269 268 263 265 264 263 263 262 269 277 280 284 286 282 282 255 235 227 227 218 210 201 199 205 198 187 185 181 177 180 180 176 172 167 161 158 150 151 152 150 146 140
268 269 268 265 265 268 263 257 260 264 270 269 270 272 275 275 271 246 237 222 221 213 205 204 204 192 186 191 186 186 178 187 181 171 157 160 161 153 156 153 155 154 149
266 264 264 265 265 264 263 261 259 255 257 261 260 262 270 279 279 270 254 235 214 214 203 205 206 195 190 188 186 188 186 170 169 172 157 161 160 153 154 153 156 156 149
255 257 258 257 256 258 260 254 256 255 252 247 251 256 265 267 271 282 269 247 236 224 214 203 199 194 191 189 187 185 179 164 164 163 155 161 158 156 153 154 152 148 152
254 250 251 253 253 252 252 254 254 252 250 251 251 250 251 258 263 266 277 277 243 239 229 201 198 194 190 192 191 182 171 163 163 161 152 155 155 156 153 153 151 151 154